When you browse on this site, cookies collect data to enhance your experience and personalize the content and advertising you see.
Visit our Privacy Policy to learn more. By continuing to use the site, you agree to this use of cookies and data.

Hourly Weather Tasquillo

Today, 12 August, Wednesday

Time Temperature Precipitation Wind Pressure Humidity
00:00 +18°C° 0 mm 2 mps 626 mmHg 94%
01:00 +19°C° 0 mm 1 mps 626 mmHg 93%
02:00 +19°C° 0 mm 1 mps 626 mmHg 91%
03:00 +19°C° 0 mm 1 mps 626 mmHg 92%
04:00 +19°C° 0 mm 1 mps 626 mmHg 93%
05:00 +18°C° 0 mm 1 mps 626 mmHg 93%
06:00 +19°C° 0 mm 1 mps 626 mmHg 88%
07:00 +20°C° 0 mm 1 mps 627 mmHg 83%
08:00 +21°C° 0 mm 1 mps 627 mmHg 78%
09:00 +23°C° 0 mm 2 mps 627 mmHg 70%
10:00 +24°C° 0 mm 2 mps 628 mmHg 62%
11:00 +26°C° 0 mm 3 mps 628 mmHg 54%
12:00 +26°C° 0.2 mm 4 mps 627 mmHg 56%
13:00 +26°C° 0.2 mm 5 mps 627 mmHg 58%
14:00 +26°C° 0.2 mm 5 mps 626 mmHg 61%
15:00 +25°C° 0.9 mm 5 mps 626 mmHg 66%
16:00 +23°C° 0.9 mm 5 mps 626 mmHg 72%
17:00 +22°C° 0.9 mm 5 mps 626 mmHg 77%
18:00 +21°C° 1 mm 4 mps 626 mmHg 82%
19:00 +20°C° 1 mm 3 mps 627 mmHg 86%
20:00 +19°C° 1 mm 2 mps 627 mmHg 91%
21:00 +19°C° 0.3 mm 2 mps 627 mmHg 92%
22:00 +19°C° 0.3 mm 1 mps 627 mmHg 92%
23:00 +19°C° 0.3 mm 1 mps 627 mmHg 93%

Tomorrow, 13 August, Thursday

Time Temperature Precipitation Wind Pressure Humidity
00:00 +19°C° 0 mm 1 mps 627 mmHg 93%
01:00 +19°C° 0 mm 1 mps 627 mmHg 93%
02:00 +19°C° 0 mm 1 mps 626 mmHg 93%
03:00 +19°C° 0 mm 1 mps 626 mmHg 92%
04:00 +17°C° 0 mm 0 mps 626 mmHg 91%
05:00 +16°C° 0 mm 0 mps 626 mmHg 89%
06:00 +17°C° 0 mm 0 mps 627 mmHg 85%
07:00 +18°C° 0 mm 0 mps 627 mmHg 81%
08:00 +19°C° 0 mm 0 mps 627 mmHg 76%
09:00 +23°C° 0 mm 1 mps 628 mmHg 68%
10:00 +24°C° 0 mm 2 mps 628 mmHg 60%
11:00 +26°C° 0 mm 2 mps 628 mmHg 52%
12:00 +26°C° 0.4 mm 3 mps 628 mmHg 54%
13:00 +26°C° 0.4 mm 4 mps 627 mmHg 56%
14:00 +27°C° 0.4 mm 5 mps 627 mmHg 57%
15:00 +25°C° 1 mm 5 mps 627 mmHg 63%
16:00 +23°C° 1 mm 5 mps 626 mmHg 68%
17:00 +22°C° 1 mm 5 mps 626 mmHg 73%
18:00 +21°C° 0.4 mm 4 mps 626 mmHg 80%
19:00 +20°C° 0.4 mm 3 mps 626 mmHg 86%
20:00 +18°C° 0.4 mm 2 mps 626 mmHg 92%
21:00 +19°C° 0 mm 1 mps 626 mmHg 93%
22:00 +19°C° 0 mm 1 mps 626 mmHg 94%
23:00 +16°C° 0 mm 0 mps 626 mmHg 95%

Day after tomorrow, 14 August, Friday

Time Temperature Precipitation Wind Pressure Humidity
00:00 +16°C° 0 mm 0 mps 626 mmHg 94%
01:00 +16°C° 0 mm 0 mps 625 mmHg 94%
02:00 +15°C° 0 mm 0 mps 625 mmHg 93%
03:00 +15°C° 0 mm 0 mps 625 mmHg 94%
04:00 +14°C° 0 mm 0 mps 625 mmHg 94%
05:00 +14°C° 0 mm 0 mps 625 mmHg 95%
06:00 +16°C° 0 mm 0 mps 625 mmHg 86%
07:00 +17°C° 0 mm 0 mps 626 mmHg 77%
08:00 +19°C° 0 mm 0 mps 627 mmHg 69%
09:00 +23°C° 0 mm 1 mps 627 mmHg 59%
10:00 +24°C° 0 mm 1 mps 627 mmHg 50%
11:00 +26°C° 0 mm 2 mps 628 mmHg 40%
12:00 +27°C° 0 mm 3 mps 627 mmHg 41%
13:00 +27°C° 0 mm 4 mps 627 mmHg 43%
14:00 +28°C° 0 mm 5 mps 627 mmHg 44%
15:00 +26°C° 0.4 mm 5 mps 626 mmHg 51%
16:00 +25°C° 0.4 mm 5 mps 626 mmHg 59%
17:00 +23°C° 0.4 mm 5 mps 625 mmHg 67%
18:00 +21°C° 0.1 mm 4 mps 625 mmHg 76%
19:00 +20°C° 0.1 mm 2 mps 626 mmHg 85%
20:00 +19°C° 0.1 mm 1 mps 626 mmHg 94%
21:00 +19°C° 0 mm 1 mps 626 mmHg 94%
22:00 +18°C° 0 mm 1 mps 626 mmHg 94%
23:00 +18°C° 0 mm 1 mps 626 mmHg 95%

15 August, Saturday

Time Temperature Precipitation Wind Pressure Humidity
00:00 +15°C° 0 mm 0 mps 625 mmHg 95%
01:00 +15°C° 0 mm 0 mps 625 mmHg 94%
02:00 +14°C° 0 mm 0 mps 624 mmHg 94%
03:00 +14°C° 0 mm 0 mps 624 mmHg 93%
04:00 +14°C° 0 mm 0 mps 624 mmHg 93%
05:00 +15°C° 0 mm 1 mps 624 mmHg 93%
06:00 +18°C° 0 mm 1 mps 625 mmHg 84%
07:00 +20°C° 0 mm 1 mps 626 mmHg 75%
08:00 +21°C° 0 mm 1 mps 627 mmHg 66%
09:00 +23°C° 0 mm 2 mps 627 mmHg 61%
10:00 +24°C° 0 mm 2 mps 627 mmHg 55%
11:00 +26°C° 0 mm 3 mps 627 mmHg 49%
12:00 +26°C° 0.1 mm 4 mps 627 mmHg 50%
13:00 +26°C° 0.1 mm 4 mps 627 mmHg 52%
14:00 +26°C° 0.1 mm 5 mps 626 mmHg 53%
15:00 +25°C° 0.6 mm 5 mps 626 mmHg 60%
16:00 +23°C° 0.6 mm 5 mps 625 mmHg 66%
17:00 +22°C° 0.6 mm 5 mps 625 mmHg 73%
18:00 +21°C° 0.5 mm 4 mps 625 mmHg 79%
19:00 +20°C° 0.5 mm 3 mps 626 mmHg 84%
20:00 +18°C° 0.5 mm 2 mps 626 mmHg 90%
21:00 +18°C° 0.7 mm 2 mps 626 mmHg 91%
22:00 +19°C° 0.7 mm 1 mps 626 mmHg 92%
23:00 +19°C° 0.7 mm 1 mps 626 mmHg 93%

16 August, Sunday

Time Temperature Precipitation Wind Pressure Humidity
00:00 +19°C° 0.1 mm 1 mps 626 mmHg 94%
01:00 +18°C° 0.1 mm 1 mps 626 mmHg 95%
02:00 +18°C° 0.1 mm 1 mps 625 mmHg 95%
03:00 +18°C° 0 mm 1 mps 625 mmHg 94%
04:00 +16°C° 0 mm 0 mps 625 mmHg 94%
05:00 +16°C° 0 mm 0 mps 625 mmHg 93%
06:00 +19°C° 0 mm 1 mps 626 mmHg 87%
07:00 +20°C° 0 mm 1 mps 626 mmHg 82%
08:00 +21°C° 0 mm 1 mps 627 mmHg 77%
09:00 +21°C° 0 mm 2 mps 627 mmHg 72%
10:00 +24°C° 0 mm 2 mps 627 mmHg 66%
11:00 +25°C° 0 mm 3 mps 627 mmHg 61%
12:00 +25°C° 0 mm 4 mps 627 mmHg 62%
13:00 +25°C° 0 mm 5 mps 626 mmHg 62%
14:00 +26°C° 0 mm 5 mps 626 mmHg 63%
15:00 +25°C° 0.2 mm 5 mps 626 mmHg 67%
16:00 +23°C° 0.2 mm 5 mps 626 mmHg 72%
17:00 +22°C° 0.2 mm 4 mps 626 mmHg 77%
18:00 +21°C° 0.5 mm 3 mps 626 mmHg 82%
19:00 +20°C° 0.5 mm 3 mps 626 mmHg 87%
20:00 +19°C° 0.5 mm 2 mps 626 mmHg 91%
21:00 +19°C° 0.2 mm 2 mps 627 mmHg 93%
22:00 +19°C° 0.2 mm 1 mps 627 mmHg 94%
23:00 +19°C° 0.2 mm 1 mps 627 mmHg 95%

17 August, Monday

Time Temperature Precipitation Wind Pressure Humidity
00:00 +19°C° 0 mm 1 mps 627 mmHg 94%
01:00 +19°C° 0 mm 1 mps 626 mmHg 93%
02:00 +19°C° 0 mm 1 mps 626 mmHg 92%
03:00 +19°C° 0 mm 1 mps 626 mmHg 93%
04:00 +16°C° 0 mm 0 mps 626 mmHg 94%
05:00 +16°C° 0 mm 0 mps 626 mmHg 95%
06:00 +17°C° 0 mm 0 mps 627 mmHg 89%
07:00 +20°C° 0 mm 1 mps 627 mmHg 84%
08:00 +21°C° 0 mm 1 mps 628 mmHg 79%
09:00 +23°C° 0 mm 2 mps 628 mmHg 70%
10:00 +24°C° 0 mm 3 mps 628 mmHg 60%
11:00 +26°C° 0 mm 4 mps 629 mmHg 51%
12:00 +26°C° 0 mm 5 mps 628 mmHg 51%
13:00 +27°C° 0 mm 5 mps 628 mmHg 51%
14:00 +27°C° 0 mm 6 mps 627 mmHg 52%
15:00 +26°C° 0 mm 6 mps 627 mmHg 57%
16:00 +24°C° 0 mm 6 mps 626 mmHg 63%
17:00 +23°C° 0 mm 6 mps 626 mmHg 69%
18:00 +21°C° 0.1 mm 4 mps 626 mmHg 77%
19:00 +20°C° 0.1 mm 3 mps 626 mmHg 84%
20:00 +18°C° 0.1 mm 2 mps 626 mmHg 92%
21:00 +18°C° 0 mm 2 mps 626 mmHg 93%
22:00 +19°C° 0 mm 1 mps 626 mmHg 93%
23:00 +19°C° 0 mm 1 mps 626 mmHg 94%
Show more